Precipitable_Water
0.44 0.45 0.45 0.46 0.46 0.46 0.47 0.47 0.47 0.47 0.47 0.47 0.48 0.48 0.49 0.50 0.53 0.55 0.57 0.58 0.59 0.61 0.62 0.64 0.65 0.64 0.64 0.64 0.65 0.65 0.66 0.66 0.66 0.67 0.66 0.65 0.64 0.63 0.61 0.60 0.59 0.58
0.42 0.43 0.44 0.44 0.45 0.45 0.45 0.45 0.45 0.45 0.46 0.47 0.47 0.47 0.48 0.48 0.49 0.51 0.53 0.54 0.56 0.57 0.59 0.60 0.61 0.62 0.62 0.62 0.62 0.62 0.63 0.63 0.62 0.64 0.63 0.62 0.62 0.62 0.61 0.61 0.60 0.60
0.40 0.41 0.42 0.42 0.42 0.43 0.44 0.44 0.45 0.45 0.45 0.45 0.45 0.46 0.46 0.47 0.48 0.48 0.49 0.50 0.52 0.53 0.55 0.56 0.58 0.59 0.59 0.60 0.60 0.60 0.59 0.60 0.59 0.60 0.60 0.59 0.60 0.59 0.59 0.59 0.59 0.58
0.39 0.40 0.40 0.41 0.41 0.41 0.42 0.42 0.43 0.43 0.44 0.44 0.44 0.44 0.44 0.45 0.46 0.47 0.48 0.49 0.49 0.49 0.51 0.52 0.53 0.54 0.56 0.57 0.57 0.57 0.57 0.57 0.58 0.58 0.58 0.58 0.58 0.57 0.57 0.57 0.57 0.56
0.36 0.37 0.37 0.38 0.39 0.39 0.40 0.40 0.40 0.41 0.41 0.41 0.42 0.43 0.43 0.44 0.44 0.44 0.45 0.45 0.46 0.48 0.49 0.49 0.50 0.51 0.51 0.53 0.54 0.53 0.54 0.54 0.55 0.55 0.54 0.54 0.55 0.55 0.55 0.55 0.54 0.53
0.34 0.34 0.34 0.35 0.35 0.36 0.36 0.37 0.37 0.37 0.38 0.38 0.39 0.39 0.39 0.40 0.41 0.41 0.42 0.43 0.43 0.44 0.44 0.45 0.46 0.47 0.48 0.49 0.49 0.50 0.50 0.50 0.51 0.51 0.51 0.51 0.51 0.52 0.53 0.53 0.52 0.51
0.31 0.32 0.32 0.32 0.32 0.33 0.33 0.33 0.34 0.34 0.34 0.34 0.35 0.36 0.36 0.36 0.37 0.37 0.38 0.39 0.40 0.41 0.42 0.42 0.42 0.43 0.44 0.45 0.46 0.46 0.47 0.47 0.48 0.48 0.48 0.48 0.49 0.48 0.49 0.49 0.49 0.49
0.28 0.28 0.29 0.29 0.29 0.29 0.29 0.30 0.30 0.31 0.31 0.31 0.32 0.32 0.33 0.33 0.33 0.34 0.34 0.34 0.35 0.36 0.37 0.39 0.39 0.40 0.41 0.42 0.42 0.42 0.43 0.44 0.44 0.45 0.45 0.45 0.45 0.45 0.46 0.47 0.47 0.47
0.25 0.25 0.25 0.25 0.26 0.26 0.26 0.26 0.26 0.27 0.27 0.28 0.28 0.28 0.29 0.30 0.30 0.30 0.30 0.30 0.31 0.32 0.33 0.34 0.35 0.35 0.36 0.38 0.38 0.39 0.39 0.40 0.41 0.42 0.42 0.42 0.42 0.42 0.43 0.44 0.44 0.44
0.24 0.24 0.24 0.24 0.23 0.23 0.23 0.22 0.22 0.22 0.22 0.23 0.24 0.24 0.24 0.25 0.26 0.26 0.26 0.26 0.26 0.26 0.27 0.28 0.30 0.31 0.31 0.33 0.34 0.34 0.35 0.35 0.36 0.37 0.38 0.39 0.39 0.40 0.40 0.41 0.41 0.41
0.23 0.23 0.22 0.22 0.22 0.21 0.21 0.20 0.20 0.20 0.20 0.20 0.20 0.20 0.20 0.21 0.21 0.21 0.22 0.22 0.22 0.22 0.22 0.23 0.24 0.25 0.26 0.27 0.29 0.30 0.31 0.31 0.32 0.33 0.34 0.34 0.35 0.36 0.37 0.37 0.38 0.38
0.20 0.20 0.20 0.19 0.19 0.18 0.18 0.18 0.17 0.17 0.17 0.17 0.18 0.18 0.17 0.18 0.18 0.19 0.20 0.20 0.20 0.19 0.19 0.20 0.20 0.20 0.21 0.22 0.23 0.24 0.26 0.27 0.27 0.29 0.30 0.31 0.31 0.32 0.33 0.34 0.34 0.34
0.18 0.18 0.18 0.17 0.17 0.17 0.17 0.17 0.17 0.16 0.16 0.16 0.16 0.16 0.16 0.16 0.16 0.16 0.17 0.17 0.17 0.17 0.17 0.18 0.18 0.18 0.18 0.19 0.20 0.21 0.22 0.22 0.22 0.22 0.23 0.25 0.26 0.27 0.28 0.29 0.30 0.31
0.18 0.18 0.18 0.18 0.17 0.17 0.17 0.17 0.16 0.16 0.16 0.16 0.16 0.16 0.16 0.16 0.16 0.16 0.16 0.16 0.16 0.16 0.16 0.16 0.16 0.16 0.16 0.17 0.18 0.19 0.20 0.20 0.20 0.20 0.20 0.21 0.21 0.22 0.23 0.24 0.26 0.27
0.18 0.18 0.18 0.18 0.17 0.17 0.17 0.16 0.16 0.16 0.15 0.15 0.15 0.15 0.15 0.15 0.15 0.15 0.15 0.15 0.15 0.15 0.15 0.15 0.15 0.14 0.15 0.16 0.17 0.18 0.18 0.18 0.18 0.18 0.18 0.18 0.18 0.19 0.19 0.19 0.21 0.22
0.18 0.18 0.18 0.17 0.17 0.17 0.16 0.16 0.16 0.15 0.15 0.15 0.15 0.14 0.14 0.14 0.15 0.15 0.14 0.14 0.14 0.14 0.14 0.14 0.14 0.14 0.14 0.15 0.17 0.17 0.18 0.17 0.17 0.17 0.17 0.17 0.17 0.17 0.17 0.17 0.17 0.18
0.17 0.17 0.17 0.17 0.17 0.16 0.16 0.16 0.15 0.15 0.15 0.15 0.14 0.14 0.14 0.14 0.14 0.14 0.14 0.14 0.14 0.13 0.13 0.13 0.13 0.13 0.14 0.15 0.16 0.17 0.17 0.17 0.17 0.16 0.17 0.16 0.16 0.16 0.15 0.15 0.15 0.16
0.17 0.17 0.16 0.16 0.16 0.16 0.15 0.15 0.15 0.15 0.14 0.14 0.14 0.14 0.14 0.14 0.14 0.14 0.13 0.14 0.14 0.13 0.13 0.13 0.13 0.13 0.14 0.15 0.16 0.16 0.16 0.16 0.16 0.16 0.16 0.15 0.15 0.15 0.15 0.15 0.15 0.14
0.16 0.16 0.16 0.16 0.15 0.15 0.15 0.14 0.14 0.14 0.14 0.14 0.14 0.14 0.14 0.13 0.13 0.13 0.13 0.13 0.13 0.13 0.13 0.13 0.13 0.13 0.13 0.14 0.15 0.15 0.15 0.16 0.16 0.15 0.15 0.15 0.14 0.14 0.14 0.14 0.14 0.14
0.16 0.16 0.15 0.15 0.15 0.14 0.14 0.14 0.14 0.13 0.13 0.13 0.13 0.13 0.13 0.13 0.13 0.13 0.13 0.13 0.13 0.12 0.12 0.13 0.13 0.13 0.13 0.14 0.14 0.15 0.15 0.15 0.15 0.14 0.14 0.13 0.13 0.13 0.13 0.13 0.13 0.14
0.15 0.15 0.15 0.14 0.14 0.14 0.13 0.13 0.13 0.13 0.13 0.13 0.13 0.13 0.12 0.12 0.12 0.12 0.12 0.12 0.12 0.12 0.12 0.12 0.12 0.12 0.12 0.13 0.13 0.14 0.14 0.15 0.14 0.13 0.13 0.13 0.13 0.13 0.12 0.12 0.13 0.14
0.15 0.14 0.14 0.14 0.13 0.13 0.13 0.12 0.12 0.12 0.12 0.12 0.12 0.12 0.12 0.12 0.12 0.12 0.11 0.11 0.11 0.11 0.11 0.11 0.11 0.11 0.12 0.12 0.12 0.13 0.14 0.13 0.13 0.12 0.12 0.12 0.12 0.12 0.12 0.12 0.12 0.12
0.14 0.13 0.13 0.13 0.12 0.12 0.12 0.12 0.12 0.12 0.12 0.12 0.11 0.11 0.11 0.11 0.11 0.11 0.11 0.11 0.11 0.11 0.10 0.10 0.10 0.10 0.11 0.11 0.11 0.12 0.12 0.12 0.12 0.12 0.12 0.11 0.11 0.11 0.11 0.11 0.11 0.11
0.13 0.12 0.12 0.12 0.11 0.11 0.11 0.11 0.11 0.11 0.11 0.11 0.10 0.10 0.10 0.10 0.10 0.10 0.10 0.10 0.10 0.10 0.10 0.10 0.10 0.10 0.10 0.10 0.11 0.11 0.12 0.11 0.11 0.11 0.10 0.10 0.10 0.10 0.10 0.10 0.10 0.10
0.12 0.11 0.11 0.10 0.10 0.10 0.10 0.10 0.10 0.10 0.10 0.10 0.10 0.09 0.09 0.09 0.09 0.09 0.09 0.09 0.09 0.09 0.09 0.09 0.09 0.09 0.09 0.09 0.10 0.10 0.10 0.10 0.10 0.10 0.09 0.09 0.09 0.09 0.09 0.09 0.09 0.09
0.11 0.10 0.10 0.09 0.09 0.09 0.09 0.09 0.09 0.09 0.09 0.09 0.09 0.09 0.08 0.08 0.08 0.08 0.08 0.08 0.08 0.08 0.08 0.08 0.08 0.08 0.08 0.09 0.09 0.09 0.09 0.10 0.09 0.08 0.08 0.08 0.08 0.08 0.08 0.08 0.09 0.09
Wind_Speed
20 21 21 22 22 22 23 23 24 25 25 26 26 27 28 28 29 30 31 33 34 34 35 36 37 38 39 40 41 41 41 42 42 43 42 42 42 43 43 44 45 46
19 20 20 20 21 21 21 22 23 23 24 25 25 26 26 27 28 29 30 31 32 33 35 35 36 37 38 39 40 41 41 41 41 42 42 43 43 42 42 42 43 44
19 19 19 20 20 21 21 22 22 23 23 24 24 25 26 26 27 28 29 30 31 32 33 34 35 35 35 36 37 38 39 40 40 41 41 41 42 42 42 42 42 42
18 19 19 19 20 20 21 21 22 22 23 23 24 24 25 26 26 27 28 29 30 31 32 33 34 34 34 34 35 35 36 37 38 39 39 39 39 40 41 41 41 41
17 18 19 19 20 20 21 21 22 22 23 23 23 24 24 25 26 27 27 28 29 30 31 31 33 34 35 35 36 36 36 36 37 38 38 38 38 39 40 40 40 40
17 18 18 19 19 20 21 21 21 22 22 23 23 24 24 25 25 26 27 28 29 29 30 31 32 33 34 35 36 36 37 37 37 38 38 38 39 39 39 40 40 40
18 18 18 19 19 20 21 21 22 22 22 23 24 24 24 25 25 26 26 27 28 29 30 30 31 32 33 34 34 35 36 37 38 38 38 39 39 39 39 40 40 40
18 18 19 19 19 20 20 21 22 22 23 23 24 24 25 25 26 26 27 27 28 29 29 30 31 32 32 33 34 35 35 36 37 38 39 39 40 40 40 41 41 41
19 20 20 20 20 21 21 21 22 22 23 23 24 25 25 26 26 27 27 28 28 29 30 30 31 31 32 33 33 34 35 36 36 37 38 39 39 40 41 41 41 42
21 21 22 22 22 22 22 22 23 23 23 23 24 24 25 26 26 27 27 28 29 29 30 31 31 32 32 33 33 34 35 35 36 36 37 38 38 39 40 40 41 41
23 23 23 23 23 24 24 24 24 24 24 24 24 25 25 25 26 27 27 28 29 29 30 31 32 32 33 33 34 34 35 36 36 37 37 38 38 39 39 40 40 41
24 25 25 24 24 25 25 25 25 25 25 25 25 26 26 26 27 27 28 28 29 30 30 31 32 33 33 34 35 35 35 36 37 37 38 38 39 39 39 40 40 41
26 26 26 26 26 26 26 26 26 26 27 27 27 27 28 28 28 28 29 29 30 30 31 31 32 33 34 34 35 36 36 37 37 38 38 39 39 40 40 40 41 41
27 27 27 27 27 27 27 28 28 28 28 29 29 30 30 30 31 31 31 31 32 32 32 33 33 34 35 35 36 36 37 38 38 39 39 40 40 41 41 41 42 42
28 28 28 29 29 29 29 29 30 30 30 31 31 32 32 33 33 33 33 34 34 34 35 35 35 36 36 37 37 38 38 39 39 40 40 41 41 42 42 43 43 43
29 30 30 30 30 31 31 31 32 32 33 33 33 34 34 34 35 35 36 36 36 37 37 37 37 38 39 39 40 40 40 41 41 41 42 42 42 43 43 44 44 45
31 31 32 32 32 33 33 34 34 35 35 35 36 36 36 36 37 37 38 38 38 39 39 40 40 40 41 41 42 42 42 43 43 43 43 43 44 44 45 45 46 46
32 33 33 34 34 35 35 36 36 37 37 38 38 38 38 39 39 39 40 40 40 41 41 42 42 42 43 43 44 44 44 45 45 45 45 45 46 46 46 47 47 47
34 34 35 35 36 37 38 38 39 39 39 40 40 40 41 41 41 42 42 42 43 43 44 44 44 45 45 46 46 46 47 47 47 47 47 48 48 48 48 49 49 49
35 35 36 37 38 39 40 40 41 41 42 42 42 43 43 43 44 44 44 45 45 46 46 46 46 47 48 48 48 48 49 49 49 50 50 50 50 50 50 50 50 51
36 37 38 39 40 41 42 42 43 43 44 44 44 45 45 45 46 46 46 47 47 47 48 48 48 49 50 50 50 50 50 51 51 51 52 52 52 52 52 52 52 52
38 39 40 41 42 43 43 44 44 45 45 45 46 46 47 47 47 48 48 49 49 49 50 50 50 51 51 51 51 52 52 52 52 53 53 53 53 53 53 53 54 54
40 41 42 43 43 44 44 45 45 46 46 47 47 48 48 48 49 49 50 50 50 51 51 51 51 52 52 52 53 53 53 53 54 54 54 54 55 55 55 55 55 56
42 43 43 44 45 46 46 47 47 47 48 48 48 49 49 50 50 51 51 51 52 52 52 53 53 53 53 54 54 54 54 54 55 55 55 56 56 56 56 57 57 58
44 45 45 46 47 48 48 48 48 49 49 50 50 50 51 51 51 52 52 52 53 53 53 54 54 54 55 55 55 55 55 55 56 56 57 57 58 58 58 58 58 59
46 47 48 48 49 49 49 50 50 50 51 51 51 52 52 53 53 53 54 54 54 54 55 55 56 56 56 56 56 57 57 57 57 58 59 59 60 60 60 60 60 60
Wind_Direction
258 257 256 256 256 255 255 254 254 253 253 253 253 252 252 251 251 250 250 249 249 249 249 250 250 250 249 249 249 249 249 249 249 250 251 252 252 252 252 253 253 253
259 259 258 257 257 257 257 256 256 255 255 254 254 254 253 253 252 252 251 250 250 249 249 250 250 250 250 249 249 248 249 249 250 250 251 251 251 251 251 252 252 252
260 260 260 259 258 258 258 258 258 258 257 257 256 255 254 254 254 253 252 252 251 251 251 251 251 251 251 250 250 249 249 249 250 250 251 251 251 251 252 253 253 253
262 261 261 261 261 260 260 259 260 259 259 258 258 257 256 255 255 254 254 253 252 252 253 253 253 252 252 251 251 251 251 251 251 251 252 252 252 252 253 253 253 253
263 263 263 262 262 262 262 262 261 261 260 259 259 259 258 257 257 256 255 255 254 254 254 254 254 254 253 252 251 252 252 252 252 252 252 253 253 253 253 254 254 253
264 265 264 264 264 264 264 264 264 262 262 261 260 260 259 259 258 257 257 256 256 256 256 256 255 255 255 254 253 253 253 253 253 253 252 253 253 254 254 254 254 254
265 266 266 265 265 265 265 265 265 264 264 263 263 262 262 261 260 259 259 258 257 257 257 257 257 257 257 256 255 255 255 254 255 255 255 255 255 255 255 255 256 256
266 267 267 267 267 268 267 267 267 266 266 265 264 264 264 263 262 261 261 261 260 259 258 258 258 258 258 258 257 258 257 257 257 257 258 258 258 258 258 258 258 258
266 267 267 268 269 269 269 269 268 268 268 267 266 266 266 265 265 264 263 263 262 261 261 260 260 260 260 259 259 259 259 258 258 258 258 258 259 259 259 260 259 259
266 267 268 269 270 270 270 270 270 270 270 269 268 268 267 267 266 266 265 264 263 263 262 262 262 262 262 261 261 261 260 260 260 260 259 259 259 260 260 260 261 261
267 267 268 269 270 270 270 270 270 271 271 270 270 269 269 269 268 267 267 266 265 265 264 264 264 263 263 263 263 263 263 263 262 262 262 262 261 261 262 262 262 262
266 267 267 268 269 269 269 270 270 271 271 271 271 270 270 270 269 269 268 268 267 267 266 266 265 265 264 264 264 264 264 264 264 264 264 264 263 263 263 263 263 263
265 265 266 267 268 268 269 269 270 270 271 271 271 271 271 270 270 270 269 269 269 269 269 268 267 267 266 265 265 266 265 265 265 265 264 264 264 265 264 264 264 264
264 265 266 267 267 268 268 269 270 270 271 271 271 271 271 271 271 270 270 270 270 270 270 269 269 268 267 267 267 267 267 266 266 266 265 265 265 265 265 265 265 265
264 265 266 267 268 268 269 270 270 271 272 272 272 272 272 272 271 271 271 271 271 271 271 270 269 269 269 269 269 268 268 267 267 266 266 266 266 266 265 265 264 264
266 267 268 268 268 269 270 270 271 272 272 273 273 273 273 272 272 271 271 271 271 271 271 271 270 270 270 271 271 270 269 268 268 267 267 267 267 267 266 266 265 265
267 268 269 269 270 270 271 272 272 273 273 274 274 273 273 273 272 272 272 272 272 271 271 271 270 270 271 271 271 271 270 269 268 268 267 267 267 267 267 267 266 266
269 270 270 271 271 272 273 273 274 274 274 274 274 274 274 273 273 273 273 272 272 272 272 271 271 271 272 272 272 271 271 269 268 268 268 268 268 268 268 267 267 266
271 272 272 272 273 274 274 275 275 275 275 275 275 275 274 274 274 274 274 273 273 273 273 272 272 272 273 273 273 272 271 270 268 268 268 269 269 268 268 268 267 267
273 274 274 274 275 275 276 276 276 276 276 276 275 275 275 275 275 275 274 274 274 274 273 273 273 273 273 274 273 272 272 270 269 269 269 269 269 269 269 268 268 267
274 275 276 276 277 277 277 278 277 277 277 277 276 276 276 276 275 275 275 274 274 274 273 273 273 274 274 274 273 273 272 271 270 270 270 269 269 269 269 268 268 268
276 276 277 277 278 278 278 278 278 277 277 277 276 276 276 276 275 275 275 275 274 274 274 273 273 274 274 274 274 273 272 271 271 270 270 269 269 269 269 269 268 268
277 278 278 278 279 279 279 278 278 277 277 277 276 276 276 276 276 275 275 275 275 274 274 274 273 274 274 274 274 274 273 272 271 271 270 270 270 270 269 269 269 269
278 279 279 279 280 280 279 279 278 278 277 277 277 277 276 276 276 276 275 275 275 275 274 274 274 274 274 274 274 274 273 272 271 271 271 271 271 270 270 270 269 269
280 280 280 280 281 280 280 279 279 278 278 278 277 277 277 277 276 276 276 276 275 275 275 275 274 274 274 274 274 274 273 272 272 271 271 271 271 271 271 270 269 269
280 281 281 281 281 280 280 279 279 279 278 278 278 277 277 277 277 276 276 276 275 275 275 275 275 274 274 275 275 274 274 273 273 272 272 272 271 271 271 270 269 269